[[{"header":{"parameterUnit":"m.s-1","parameterCategory":2,"la1":30.2991,"la2":30.254,"lo1":-89.0895,"lo2":-89.0444,"dy":0.0017,"dx":0.0017,"nx":28,"ny":28,"refTime":"2023-09-04T03:00:00:Z","depth":"0","parameterNumber":2,"parameterNumberName":"U-component_of_CURRENTS"},"data":[0,0,0,0,0,0,0,0,0,0,0,0,0,0,0,0,0,0,0,0,0,0,0,0,0,0,0,0,0,0,0,0,0,0,0,0,0,0,0,0,0,0,0,0,0,0,0,0,0,0,0,0,0,0,0,0,0,0,0.2057,0.2058,0,0.2126,0.2126,0.2127,0.2143,0.2142,0.2142,0.2142,0.2098,0.2097,0.2096,0,0,0,0,0,0,0,0,0,0,0,0,0,0.1973,0.1974,0.2057,0.2058,0.2059,0.2126,0.2126,0.2127,0.2143,0.2142,0.2142,0.2142,0.2098,0.2097,0.2096,0,0,0,0,0,0,0,0,0,0,0,0,0,0.2021,0.1975,0.2056,0.2076,0.2078,0.2125,0.2126,0.2127,0.2143,0.2142,0.2142,0.2141,0.2098,0.2097,0.2096,0.2097,0,0,0.2092,0.2091,0,0,0,0,0,0,0,0,0.2018,0.2024,0.2072,0.2075,0.2078,0.2127,0.2081,0.2112,0.2143,0.2116,0.2142,0.2141,0.2098,0.2097,0.211,0.2095,0.2093,0.2092,0.2091,0.209,0.209,0,0,0,0,0,0,0,0.2015,0.2021,0.2082,0.2073,0.2077,0.2093,0.2099,0.2088,0.2106,0.2119,0.212,0.2131,0.2099,0.2112,0.2109,0.2093,0.2092,0.209,0.209,0.2089,0.211,0.2111,0,0,0,0,0,0,0.2009,0.2018,0.208,0.2084,0.2048,0.2095,0.2101,0.211,0.2108,0.2109,0.2131,0.2132,0.2114,0.211,0.2107,0.2137,0.209,0.2089,0.2088,0.2109,0.211,0.2112,0,0,0,0,0,0,0.2007,0.2013,0.2077,0.2054,0.2064,0.2097,0.2107,0.2112,0.2128,0.212,0.2118,0.2143,0.2113,0.2109,0.2114,0.2134,0.2088,0.2087,0.2107,0.2109,0.2111,0.2178,0,0,0,0,0,0,0.2004,0.2012,0.2014,0.2054,0.2065,0.2113,0.2107,0.2113,0.2136,0.2137,0.2129,0.2125,0.2113,0.2116,0.2113,0.2131,0.2086,0.2106,0.2108,0.2111,0.2174,0.2182,0.2189,0,0,0,0,0,0.2001,0.2008,0.2014,0.2022,0.2067,0.2114,0.2122,0.2142,0.2137,0.2153,0.2151,0.2125,0.213,0.2117,0.2112,0.2131,0.2104,0.2107,0.211,0.2171,0.218,0.2189,0,0,0,0,0,0,0.197,0.2012,0.2019,0.2037,0.2076,0.2117,0.2135,0.2146,0.216,0.2156,0.214,0.2137,0.2154,0.2132,0.2118,0.2146,0.2113,0.2115,0.2161,0.2169,0.2177,0.2178,0.2085,0,0,0,0,0,0.1966,0.1983,0.2027,0.2043,0.2064,0.2099,0.2118,0.2136,0.2156,0.2162,0.2159,0.2155,0.2164,0.2158,0.2161,0.2167,0.2174,0.2177,0.2185,0.2191,0.219,0.2232,0.2243,0.2122,0.2122,0.2122,0,0,0.1954,0.1984,0.1989,0.2038,0.2069,0.2105,0.211,0.2148,0.217,0.2152,0.2176,0.2182,0.2174,0.2195,0.2199,0.2176,0.2234,0.2195,0.22,0.2196,0.2236,0.2248,0.2258,0.2124,0.2124,0.2123,0,0,0.1951,0.1974,0.199,0.2031,0.2085,0.2111,0.2123,0.217,0.2184,0.221,0.2212,0.2234,0.223,0.2244,0.2245,0.229,0.2278,0.2287,0.2316,0.2357,0.2367,0.2376,0.2419,0.2431,0.2283,0.2283,0.2283,0,0.1936,0.1965,0.2002,0.2043,0.2076,0.2114,0.2146,0.2173,0.2213,0.2228,0.2221,0.2264,0.2256,0.2295,0.2314,0.2307,0.2328,0.2283,0.2367,0.2376,0.2384,0.2426,0.2438,0.2286,0.2286,0.2286,0.2285,0,0.1951,0.1982,0.2003,0.2061,0.2102,0.214,0.2189,0.222,0.2237,0.2262,0.2308,0.2323,0.2347,0.2354,0.2343,0.2402,0.2399,0.238,0.2345,0.24,0.2441,0.2453,0.2291,0.229,0.2289,0.2288,0,0,0.1898,0.199,0.1998,0.2038,0.2117,0.2157,0.2199,0.2252,0.2282,0.2321,0.2363,0.2397,0.2415,0.2419,0.2426,0.2456,0.2538,0.2441,0.2441,0.2485,0.2639,0.2577,0.2584,0.2536,0.2538,0.2539,0.2651,0,0.1898,0.1966,0.2011,0.208,0.2124,0.2183,0.2224,0.2278,0.2314,0.2364,0.2399,0.244,0.2437,0.2459,0.2496,0.2523,0.257,0.251,0.2576,0.2579,0.2518,0.2596,0.2409,0.2486,0.2662,0.2664,0.2666,0,0.1892,0.1948,0.2004,0.2106,0.213,0.217,0.2253,0.2297,0.237,0.2398,0.2455,0.2485,0.255,0.2532,0.2629,0.2592,0.2625,0.2645,0.265,0.2572,0.2539,0.2455,0.2501,0.2401,0.2684,0.2682,0.2681,0,0.1843,0.1943,0.1986,0.2024,0.2135,0.2168,0.2223,0.2301,0.2339,0.2424,0.2457,0.2542,0.2585,0.2644,0.2695,0.2669,0.2795,0.2761,0.2746,0.2743,0.2584,0.2562,0.2535,0.284,0.284,0.284,0.2839,0,0.1823,0.1864,0.197,0.2002,0.2063,0.2151,0.2209,0.227,0.2351,0.2403,0.2473,0.2526,0.2614,0.2691,0.273,0.2783,0.2833,0.277,0.2772,0.2603,0.2583,0.2486,0.2461,0.2844,0.2843,0.2842,0.2841,0,0.1758,0.1822,0.189,0.2006,0.2039,0.2085,0.2192,0.2239,0.2316,0.2387,0.2416,0.2529,0.2631,0.272,0.2824,0.2817,0.278,0.2884,0.2684,0.2658,0.2507,0.2493,0.2443,0.2373,0.2873,0.2873,0.2872,0,0.1726,0.1753,0.1874,0.1915,0.1965,0.2044,0.2097,0.2201,0.2251,0.2383,0.2413,0.2538,0.2612,0.2747,0.2765,0.2838,0.2771,0.2699,0.2603,0.2489,0.2475,0.2418,0.2358,0.2435,0.2431,0.2428,0.2425,0,0.1672,0.1712,0.1768,0.1855,0.1919,0.1997,0.2081,0.2115,0.224,0.229,0.2384,0.2453,0.2574,0.2562,0.2649,0.2653,0.252,0.2629,0.2555,0.2172,0.2062,0.1995,0.2389,0.2394,0.2397,0.24,0.2401,0.2402,0.1622,0.1643,0.1716,0.1793,0.1864,0.1942,0.1961,0.2047,0.2104,0.2153,0.2287,0.2305,0.2348,0.2426,0.2432,0.2264,0.2343,0.2151,0.2163,0.2132,0.1988,0.2322,0.2295,0.2297,0.2299,0.2301,0.2303,0,0.1563,0.1595,0.1659,0.1735,0.1778,0.1856,0.1937,0.1929,0.1943,0.201,0.2052,0.204,0.2001,0.2012,0.1904,0.1803,0.1722,0.1737,0.1589,0.157,0.1889,0.1789,0.1593,0.1593,0.1594,0.1594,0.1594,0.1594,0.1531,0.155,0.1588,0.1629,0.1681,0.1694,0.172,0.1715,0.1732,0.1691,0.1645,0.1687,0.1725,0.1646,0.1489,0.1436,0.1328,0.1246,0.1326,0.1506,0.1544,0.158,0.1478,0.122,0.122,0.0876,0.0874,0.0872]},{"header":{"parameterUnit":"m.s-1","parameterCategory":2,"la1":30.2991,"la2":30.254,"lo1":-89.0895,"lo2":-89.0444,"dy":0.0017,"dx":0.0017,"nx":28,"ny":28,"refTime":"2023-09-04T03:00:00:Z","depth":"0","parameterNumber":3,"parameterNumberName":"V-component_of_CURRENTS"},"data":[0,0,0,0,0,0,0,0,0,0,0,0,0,0,0,0,0,0,0,0,0,0,0,0,0,0,0,0,0,0,0,0,0,0,0,0,0,0,0,0,0,0,0,0,0,0,0,0,0,0,0,0,0,0,0,0,0,0,0.002,0.002,0,-0.0019,-0.0019,-0.0019,-0.0034,-0.0034,-0.0034,-0.0034,-0.0045,-0.0045,-0.0045,0,0,0,0,0,0,0,0,0,0,0,0,0,0.0098,0.0097,0.002,0.002,0.0019,-0.0019,-0.0019,-0.002,-0.0034,-0.0034,-0.0034,-0.0034,-0.0045,-0.0045,-0.0045,0,0,0,0,0,0,0,0,0,0,0,0,0,0.0063,0.0096,0.002,0.0006,0.0005,-0.0019,-0.0019,-0.002,-0.0034,-0.0034,-0.0034,-0.0034,-0.0045,-0.0045,-0.0045,-0.0049,0,0,-0.0047,-0.0047,0,0,0,0,0,0,0,0,0.0065,0.006,0.0009,0.0007,0.0005,-0.0022,0.0004,-0.0028,-0.0034,-0.0019,-0.0034,-0.0034,-0.0035,-0.0037,-0.0043,-0.0049,-0.005,-0.0047,-0.0047,-0.0047,-0.0047,0,0,0,0,0,0,0,0.0067,0.0062,0.0006,0.0008,0.0006,0.0008,0.0003,-0.0002,-0.0025,-0.002,-0.0021,-0.0027,-0.0036,-0.0043,-0.0043,-0.005,-0.0047,-0.0047,-0.0048,-0.0048,-0.0064,-0.0064,0,0,0,0,0,0,0.0069,0.0064,0.0007,0.0005,0.0035,0.0006,0.0001,-0.0013,-0.0026,-0.0029,-0.0027,-0.0028,-0.0042,-0.0043,-0.0044,-0.0046,-0.0047,-0.0048,-0.0048,-0.0064,-0.0064,-0.0064,0,0,0,0,0,0,0.0071,0.0064,0.0009,0.0033,0.0026,0.0004,-0.001,-0.0014,-0.0019,-0.0032,-0.0034,-0.0029,-0.0042,-0.0043,-0.0048,-0.0047,-0.0048,-0.0048,-0.0063,-0.0064,-0.0064,-0.0053,0,0,0,0,0,0,0.0073,0.0065,0.0061,0.0033,0.0025,-0.0002,-0.0011,-0.0014,-0.0023,-0.0024,-0.0034,-0.0035,-0.0042,-0.0048,-0.0049,-0.0047,-0.0049,-0.0063,-0.0063,-0.0064,-0.0053,-0.0053,-0.0052,0,0,0,0,0,0.0076,0.007,0.0061,0.0054,0.0018,-0.0002,-0.0006,-0.002,-0.0023,-0.0024,-0.0033,-0.0035,-0.005,-0.0048,-0.0049,-0.0048,-0.0063,-0.0063,-0.0064,-0.0053,-0.0053,-0.0052,0,0,0,0,0,0,0.0103,0.0067,0.0056,0.004,0.0022,-0.0005,-0.0007,-0.0018,-0.0027,-0.0025,-0.0036,-0.0038,-0.0043,-0.0048,-0.0045,-0.0054,-0.0057,-0.0058,-0.0049,-0.0048,-0.0048,-0.0031,-0.0049,0,0,0,0,0,0.0106,0.0092,0.006,0.0049,0.004,0.0018,0.0009,-0.0002,-0.0016,-0.002,-0.003,-0.0038,-0.0046,-0.0048,-0.0056,-0.0059,-0.0051,-0.006,-0.006,-0.0059,-0.0047,-0.0036,-0.0033,-0.0065,-0.0065,-0.0065,0,0,0.0115,0.0093,0.0085,0.0054,0.004,0.003,0.0013,0.0002,-0.0004,-0.0019,-0.0025,-0.0037,-0.0047,-0.0054,-0.0056,-0.0056,-0.0047,-0.006,-0.0059,-0.0047,-0.0036,-0.0033,-0.003,-0.0065,-0.0065,-0.0065,0,0,0.0128,0.0104,0.01,0.0083,0.006,0.0043,0.0041,0.0015,0.0006,-0.0005,-0.0017,-0.0026,-0.004,-0.0047,-0.0052,-0.0053,-0.0047,-0.0059,-0.0042,-0.0031,-0.0028,-0.0025,-0.0014,-0.001,-0.0057,-0.0057,-0.0057,0,0.0143,0.0126,0.0097,0.0089,0.0081,0.0051,0.005,0.0034,0.001,0.001,-0.0003,-0.0018,-0.0035,-0.0032,-0.0041,-0.0051,-0.0042,-0.0042,-0.0029,-0.0026,-0.0023,-0.0012,-0.0008,-0.0057,-0.0057,-0.0057,-0.0057,0,0.015,0.014,0.0137,0.0114,0.0102,0.0095,0.0068,0.0059,0.0044,0.0031,0.0027,0.0004,0.0001,-0.0015,-0.0032,-0.0022,-0.0021,-0.003,-0.0027,-0.0019,-0.0009,-0.0004,-0.0056,-0.0056,-0.0057,-0.0057,0,0,0.0179,0.0149,0.015,0.0148,0.0115,0.011,0.0098,0.0085,0.0094,0.0065,0.0083,0.0045,0.0039,0.0033,0.0013,0.0011,0.0023,-0.0002,-0.0002,0.0016,0.0052,0.0036,0.0039,0.0018,0.0019,0.002,0.0051,0,0.0198,0.0195,0.0172,0.0175,0.0172,0.0143,0.0141,0.0127,0.0114,0.0121,0.0098,0.0103,0.0056,0.0061,0.005,0.0034,0.0035,0.0016,0.0037,0.0038,0.0028,0.0043,0.006,0.0088,0.0055,0.0056,0.0056,0,0.0217,0.0212,0.022,0.0211,0.0209,0.0208,0.0209,0.0203,0.0198,0.0192,0.0189,0.0173,0.0165,0.0128,0.0111,0.0103,0.008,0.0063,0.0064,0.0051,0.003,0.0075,0.0097,0.0026,0.0063,0.0062,0.0062,0,0.0259,0.0249,0.026,0.0254,0.0237,0.0245,0.024,0.0232,0.0242,0.0248,0.0267,0.0247,0.0257,0.0221,0.0167,0.0146,0.0158,0.0127,0.0094,0.0093,0.0114,0.0113,0.0077,0.0126,0.0126,0.0126,0.0126,0,0.0286,0.0295,0.0284,0.0289,0.0314,0.029,0.032,0.0311,0.0324,0.0359,0.0316,0.0349,0.0282,0.0271,0.0209,0.0169,0.0192,0.0109,0.0104,0.0116,0.0115,0.0058,0.0004,0.0127,0.0127,0.0127,0.0126,0,0.0325,0.0315,0.0331,0.0329,0.0334,0.0354,0.037,0.0394,0.0396,0.0447,0.0455,0.0442,0.0429,0.0358,0.0314,0.0237,0.0149,0.0171,0.0188,0.0183,0.0065,0.001,-0.0027,-0.0073,0.014,0.014,0.014,0,0.034,0.0353,0.037,0.0388,0.0389,0.0414,0.0437,0.0436,0.0468,0.0509,0.0547,0.0548,0.0568,0.0487,0.0364,0.0271,0.0173,0.0196,0.0148,0.007,0.0006,-0.0035,-0.0075,0.0182,0.0182,0.0183,0.0183,0,0.0371,0.0383,0.0399,0.044,0.0469,0.0501,0.0535,0.057,0.0589,0.064,0.0706,0.0729,0.0656,0.0577,0.0428,0.0339,0.0134,0.0195,0.0119,0.0041,-0.0008,-0.0058,0.0146,0.0184,0.0184,0.0184,0.0184,0.0184,0.0399,0.0422,0.0453,0.0493,0.0533,0.0588,0.0623,0.0674,0.0745,0.0827,0.0837,0.0896,0.0746,0.0555,0.0428,0.0177,0.0156,0.0094,0.0038,0.0008,-0.0053,0.0147,0.0169,0.0169,0.0169,0.0168,0.0168,0,0.0424,0.0455,0.0499,0.0552,0.0609,0.0618,0.0689,0.0735,0.0834,0.0924,0.0992,0.096,0.078,0.0554,0.0228,0.0059,-0.0019,-0.0047,-0.0095,-0.0127,0.007,0.0054,0.0046,0.0047,0.0047,0.0047,0.0047,0.0047,0.0439,0.0485,0.051,0.0607,0.0651,0.0722,0.0764,0.0844,0.0918,0.103,0.1076,0.1096,0.0916,0.0359,-0.002,-0.0113,-0.0244,-0.0256,-0.0342,-0.0203,-0.0194,-0.0186,-0.0213,-0.0277,-0.0277,-0.0505,-0.0507,-0.0509]}],[{"header":{"parameterUnit":"m.s-1","parameterCategory":2,"la1":30.2991,"la2":30.254,"lo1":-89.0895,"lo2":-89.0444,"dy":0.0017,"dx":0.0017,"nx":28,"ny":28,"refTime":"2023-09-04T03:00:00:Z","depth":"2","parameterNumber":2,"parameterNumberName":"U-component_of_CURRENTS"},"data":[0,0,0,0,0,0,0,0,0,0,0,0,0,0,0,0,0,0,0,0,0,0,0,0,0,0,0,0,0,0,0,0,0,0,0,0,0,0,0,0,0,0,0,0,0,0,0,0,0,0,0,0,0,0,0,0,0,0,0.1673,0.1674,0,0.1727,0.1727,0.1727,0.1724,0.1724,0.1724,0.1723,0.1709,0.1709,0.1709,0,0,0,0,0,0,0,0,0,0,0,0,0,0.1648,0.1648,0.1673,0.1674,0.1675,0.1727,0.1727,0.1728,0.1724,0.1724,0.1723,0.1723,0.1709,0.1709,0.1709,0,0,0,0,0,0,0,0,0,0,0,0,0,0.1671,0.1647,0.1672,0.1683,0.1685,0.1727,0.1727,0.1728,0.1724,0.1724,0.1723,0.1723,0.1709,0.1709,0.1709,0.1718,0,0,0.1709,0.1709,0,0,0,0,0,0,0,0,0.167,0.1671,0.1681,0.1683,0.1685,0.1723,0.1714,0.1723,0.1724,0.1704,0.1723,0.1723,0.1711,0.1711,0.1716,0.1717,0.1717,0.1709,0.1709,0.1709,0.1709,0,0,0,0,0,0,0,0.1668,0.1669,0.1689,0.1682,0.1685,0.1714,0.1716,0.1716,0.1704,0.1706,0.1707,0.1721,0.1711,0.1716,0.1715,0.1717,0.1709,0.1709,0.1709,0.1709,0.1775,0.1777,0,0,0,0,0,0,0.1668,0.1667,0.1687,0.1691,0.1682,0.1715,0.1717,0.1707,0.1706,0.1707,0.1722,0.1721,0.1716,0.1716,0.1715,0.1764,0.1709,0.1709,0.1709,0.1773,0.1775,0.1777,0,0,0,0,0,0,0.1667,0.1668,0.1685,0.1686,0.1691,0.1716,0.1706,0.1708,0.1724,0.172,0.1719,0.1736,0.1716,0.1715,0.1716,0.1762,0.1709,0.1709,0.1771,0.1774,0.1776,0.1837,0,0,0,0,0,0,0.1665,0.1667,0.1675,0.1685,0.1691,0.1714,0.1707,0.171,0.1736,0.1736,0.1732,0.173,0.1716,0.1717,0.1716,0.176,0.1708,0.1769,0.1772,0.1776,0.1832,0.1841,0.1849,0,0,0,0,0,0.1664,0.1672,0.1674,0.1678,0.1695,0.1715,0.172,0.1734,0.1737,0.1746,0.1739,0.173,0.1739,0.1717,0.1716,0.1762,0.1767,0.1771,0.1775,0.1829,0.1839,0.1848,0,0,0,0,0,0,0.166,0.1673,0.1675,0.1685,0.1703,0.1717,0.1737,0.1745,0.1749,0.1759,0.1736,0.1734,0.1755,0.175,0.1726,0.1794,0.176,0.1764,0.1801,0.181,0.1818,0.1853,0.1708,0,0,0,0,0,0.1665,0.1675,0.1689,0.1699,0.1708,0.1725,0.1742,0.1758,0.1763,0.1766,0.1766,0.1772,0.1773,0.1782,0.1782,0.1812,0.1812,0.1848,0.1856,0.1862,0.1892,0.1926,0.194,0.1791,0.1791,0.1791,0,0,0.1668,0.1679,0.1685,0.1701,0.1715,0.1745,0.1732,0.1769,0.1801,0.1764,0.1803,0.1794,0.1783,0.1814,0.1827,0.1816,0.1899,0.1868,0.1873,0.19,0.1932,0.1946,0.1959,0.1794,0.1793,0.1793,0,0,0.1677,0.1685,0.1696,0.1717,0.1755,0.1777,0.179,0.182,0.1836,0.1872,0.1853,0.1873,0.1882,0.1889,0.189,0.1947,0.1933,0.1952,0.2031,0.2063,0.2076,0.2087,0.2077,0.2087,0.1967,0.1967,0.1967,0,0.1686,0.169,0.1705,0.1727,0.1755,0.1791,0.1821,0.1851,0.1884,0.1902,0.1897,0.1934,0.1926,0.1959,0.1986,0.1969,0.1968,0.1988,0.2074,0.2085,0.2095,0.2083,0.2093,0.197,0.197,0.197,0.1969,0,0.1698,0.1714,0.1725,0.1764,0.1802,0.1835,0.1884,0.1932,0.1968,0.1992,0.2039,0.2036,0.2065,0.2067,0.2047,0.2121,0.2087,0.2068,0.2047,0.2114,0.2096,0.2105,0.1975,0.1974,0.1973,0.1972,0,0,0.1681,0.1723,0.1728,0.1754,0.1826,0.1859,0.1933,0.1993,0.2049,0.2093,0.2152,0.2172,0.2189,0.2194,0.2179,0.2216,0.2278,0.219,0.219,0.2177,0.2325,0.2246,0.2247,0.2273,0.2276,0.2278,0.2271,0,0.1682,0.1722,0.175,0.1813,0.1842,0.1909,0.1973,0.2048,0.2108,0.2182,0.2208,0.2253,0.223,0.2257,0.2296,0.2286,0.2312,0.228,0.2266,0.2266,0.2185,0.226,0.2054,0.2027,0.228,0.2282,0.2283,0,0.168,0.1712,0.1756,0.184,0.186,0.1916,0.2041,0.2103,0.2211,0.2256,0.2327,0.2349,0.2418,0.239,0.2431,0.2412,0.2391,0.2373,0.2372,0.2293,0.2207,0.2008,0.2034,0.2298,0.2297,0.2296,0.2295,0,0.166,0.172,0.1756,0.1782,0.1884,0.1933,0.2008,0.2125,0.2189,0.2315,0.2378,0.2449,0.2503,0.2509,0.2504,0.2475,0.2535,0.2478,0.2376,0.2367,0.2189,0.2161,0.2513,0.2513,0.2513,0.2513,0.2513,0,0.1646,0.1677,0.1751,0.1774,0.1846,0.1933,0.2035,0.2116,0.2247,0.2323,0.2416,0.2482,0.2546,0.2585,0.2548,0.2506,0.2571,0.2414,0.2381,0.22,0.2174,0.2413,0.2401,0.2513,0.2513,0.2513,0.2513,0,0.1609,0.1647,0.1698,0.1798,0.183,0.1894,0.2039,0.2117,0.2243,0.2354,0.24,0.2535,0.2569,0.2595,0.2611,0.2556,0.2519,0.2478,0.225,0.2191,0.2305,0.2297,0.2353,0.235,0.2348,0.2347,0.2345,0,0.1588,0.1606,0.17,0.1731,0.1772,0.1876,0.1947,0.2095,0.2174,0.2358,0.2395,0.2501,0.2503,0.2511,0.2459,0.2383,0.2459,0.2171,0.2085,0.2338,0.2299,0.2294,0.2289,0.1852,0.1847,0.1842,0.1839,0,0.1551,0.1583,0.1624,0.1685,0.175,0.1839,0.1949,0.2007,0.2175,0.2249,0.2325,0.2338,0.235,0.22,0.2164,0.2095,0.217,0.2077,0.2427,0.1933,0.1868,0.1829,0.184,0.18,0.1804,0.1807,0.1809,0.181,0.1521,0.1536,0.1583,0.1636,0.1709,0.1785,0.1818,0.1917,0.1997,0.2034,0.2122,0.2036,0.2031,0.1827,0.1769,0.1765,0.1893,0.18,0.1813,0.183,0.1782,0.1719,0.1611,0.1613,0.1616,0.1618,0.162,0,0.1475,0.1492,0.1533,0.1586,0.1615,0.1697,0.1795,0.1775,0.1788,0.1794,0.1761,0.154,0.1411,0.1441,0.1348,0.1346,0.1331,0.131,0.1269,0.1308,0.1343,0.127,0.0963,0.0961,0.0959,0.0958,0,0,0.1452,0.1449,0.1464,0.147,0.1508,0.152,0.1551,0.1516,0.1498,0.1375,0.1286,0.1244,0.133,0.1091,0.108,0.1011,0.115,0.097,0.1492,0.1479,0.1511,0.1617,0.1547,0,0,0,0,0]},{"header":{"parameterUnit":"m.s-1","parameterCategory":2,"la1":30.2991,"la2":30.254,"lo1":-89.0895,"lo2":-89.0444,"dy":0.0017,"dx":0.0017,"nx":28,"ny":28,"refTime":"2023-09-04T03:00:00:Z","depth":"2","parameterNumber":3,"parameterNumberName":"V-component_of_CURRENTS"},"data":[0,0,0,0,0,0,0,0,0,0,0,0,0,0,0,0,0,0,0,0,0,0,0,0,0,0,0,0,0,0,0,0,0,0,0,0,0,0,0,0,0,0,0,0,0,0,0,0,0,0,0,0,0,0,0,0,0,0,-0.0073,-0.0074,0,-0.0151,-0.0151,-0.0152,-0.0184,-0.0184,-0.0184,-0.0184,-0.0209,-0.021,-0.021,0,0,0,0,0,0,0,0,0,0,0,0,0,0.0018,0.0017,-0.0073,-0.0074,-0.0075,-0.0151,-0.0151,-0.0152,-0.0184,-0.0184,-0.0184,-0.0184,-0.0209,-0.021,-0.021,0,0,0,0,0,0,0,0,0,0,0,0,0,-0.0035,0.0016,-0.0073,-0.0101,-0.0105,-0.015,-0.0151,-0.0153,-0.0184,-0.0184,-0.0184,-0.0184,-0.0208,-0.0209,-0.021,-0.0217,0,0,-0.0214,-0.0214,0,0,0,0,0,0,0,0,-0.0032,-0.0038,-0.0096,-0.01,-0.0103,-0.0159,-0.0129,-0.0172,-0.0184,-0.0152,-0.0184,-0.0184,-0.0188,-0.0191,-0.0204,-0.0218,-0.022,-0.0214,-0.0214,-0.0215,-0.0215,0,0,0,0,0,0,0,-0.0028,-0.0035,-0.0102,-0.0097,-0.0102,-0.0121,-0.0128,-0.0137,-0.0167,-0.0155,-0.0158,-0.0169,-0.019,-0.0203,-0.0205,-0.022,-0.0214,-0.0215,-0.0215,-0.0216,-0.0239,-0.0239,0,0,0,0,0,0,-0.0021,-0.0032,-0.01,-0.0105,-0.0069,-0.0122,-0.013,-0.014,-0.0168,-0.0174,-0.0169,-0.017,-0.0201,-0.0204,-0.0206,-0.0215,-0.0215,-0.0216,-0.0216,-0.0239,-0.0239,-0.0239,0,0,0,0,0,0,-0.0019,-0.0026,-0.0097,-0.0071,-0.0082,-0.0124,-0.0135,-0.0141,-0.0156,-0.018,-0.0184,-0.0177,-0.0202,-0.0204,-0.0209,-0.0216,-0.0216,-0.0217,-0.0239,-0.0239,-0.0239,-0.0232,0,0,0,0,0,0,-0.0016,-0.0025,-0.0029,-0.0071,-0.0083,-0.0118,-0.0135,-0.0143,-0.0164,-0.0166,-0.0188,-0.019,-0.0202,-0.0207,-0.021,-0.0217,-0.0218,-0.0239,-0.0239,-0.0239,-0.0232,-0.0232,-0.0232,0,0,0,0,0,-0.0012,-0.0017,-0.0029,-0.0037,-0.0088,-0.0118,-0.0126,-0.0155,-0.0164,-0.0168,-0.018,-0.019,-0.0209,-0.0208,-0.0211,-0.0219,-0.0239,-0.0239,-0.0239,-0.0233,-0.0232,-0.0232,0,0,0,0,0,0,0.002,-0.0023,-0.0036,-0.0054,-0.0081,-0.0124,-0.0133,-0.0153,-0.0169,-0.017,-0.0187,-0.019,-0.0196,-0.0206,-0.0204,-0.0225,-0.0227,-0.0227,-0.0221,-0.0221,-0.022,-0.0215,-0.0219,0,0,0,0,0,0.0025,0.001,-0.0031,-0.0043,-0.0056,-0.0093,-0.011,-0.0131,-0.0153,-0.0161,-0.0181,-0.0194,-0.02,-0.0208,-0.0216,-0.0227,-0.0219,-0.0235,-0.0234,-0.0234,-0.0232,-0.0215,-0.0212,-0.0239,-0.0239,-0.0239,0,0,0.0034,0.0008,0.0,-0.0038,-0.006,-0.0081,-0.0102,-0.0127,-0.0143,-0.016,-0.0181,-0.0191,-0.02,-0.0212,-0.0216,-0.0221,-0.0222,-0.0234,-0.0234,-0.0232,-0.0214,-0.0211,-0.0209,-0.0239,-0.0239,-0.0239,0,0,0.0047,0.0024,0.0017,-0.0007,-0.0044,-0.007,-0.0075,-0.012,-0.0135,-0.0159,-0.0169,-0.0179,-0.0204,-0.0211,-0.0216,-0.0217,-0.0215,-0.0224,-0.0225,-0.0208,-0.0206,-0.0203,-0.0187,-0.0183,-0.023,-0.023,-0.023,0,0.006,0.0043,0.0011,-0.0004,-0.0021,-0.0063,-0.0073,-0.0099,-0.0141,-0.0146,-0.0163,-0.0188,-0.0203,-0.0202,-0.0211,-0.0216,-0.0205,-0.0226,-0.0207,-0.0204,-0.0202,-0.0186,-0.0182,-0.0229,-0.0229,-0.0229,-0.0229,0,0.0063,0.005,0.0045,0.0012,-0.0011,-0.0026,-0.0067,-0.0089,-0.0117,-0.0141,-0.0152,-0.0174,-0.0188,-0.0199,-0.0211,-0.0205,-0.02,-0.0202,-0.0206,-0.0199,-0.0183,-0.0178,-0.0229,-0.0229,-0.0229,-0.0229,0,0,0.0095,0.0057,0.0056,0.0047,-0.0003,-0.0019,-0.0045,-0.0072,-0.008,-0.0122,-0.0125,-0.0155,-0.0169,-0.0175,-0.0189,-0.0189,-0.0174,-0.0196,-0.0195,-0.0177,-0.0133,-0.0147,-0.0144,-0.0169,-0.0169,-0.0168,-0.0127,0,0.0112,0.0098,0.0069,0.0055,0.0044,0.0002,-0.0015,-0.0048,-0.0076,-0.0092,-0.0114,-0.0123,-0.0158,-0.0163,-0.0169,-0.0162,-0.0163,-0.0184,-0.0145,-0.0144,-0.0155,-0.014,-0.0131,-0.0096,-0.0123,-0.0122,-0.0122,0,0.0123,0.0113,0.0109,0.008,0.0073,0.0058,0.0029,0.0007,-0.0024,-0.0042,-0.0061,-0.0083,-0.009,-0.0121,-0.0112,-0.0122,-0.0132,-0.0135,-0.0133,-0.0145,-0.0151,-0.0108,-0.0087,-0.0115,-0.0115,-0.0116,-0.0116,0,0.0162,0.0139,0.0142,0.013,0.0092,0.0088,0.0065,0.0028,0.0025,-0.0005,0.0001,-0.0026,-0.0013,-0.0038,-0.006,-0.0082,-0.0041,-0.0067,-0.0088,-0.0089,-0.0075,-0.0076,-0.0063,-0.0063,-0.0063,-0.0063,-0.0063,0,0.0184,0.0185,0.0165,0.0164,0.017,0.0125,0.0129,0.0099,0.0082,0.0103,0.0038,0.0071,0.001,0.0017,-0.0028,-0.0035,-0.0011,-0.0082,-0.0078,-0.0073,-0.0074,-0.0088,-0.0092,-0.0062,-0.0062,-0.0062,-0.0062,0,0.0219,0.0206,0.0211,0.0191,0.0188,0.0191,0.0175,0.0176,0.0155,0.0185,0.0184,0.0168,0.0179,0.0116,0.0099,0.0032,0.0007,-0.0005,0.0001,0.0003,-0.0065,-0.0069,-0.0031,-0.0031,-0.0031,-0.0031,-0.0031,0,0.0233,0.0242,0.0244,0.0254,0.0249,0.0248,0.0248,0.0217,0.0231,0.0265,0.0298,0.0307,0.0338,0.0291,0.0173,0.0091,0.0061,0.002,-0.0037,-0.0061,-0.0061,-0.0064,-0.0068,-0.0009,-0.0009,-0.0009,-0.0009,0,0.0266,0.0274,0.0281,0.0306,0.0317,0.0328,0.0335,0.0363,0.0356,0.0411,0.0504,0.0537,0.0469,0.0391,0.0233,0.0164,0.0023,0.0017,0.002,-0.0029,-0.004,-0.004,-0.0044,-0.0008,-0.0008,-0.0008,-0.0008,-0.0008,0.0298,0.0314,0.0332,0.0356,0.0378,0.0415,0.0439,0.0481,0.0552,0.0626,0.0658,0.0696,0.0561,0.0369,0.0239,0.0063,0.0065,-0.0017,-0.0017,-0.0017,-0.0033,-0.0045,-0.0016,-0.0016,-0.0016,-0.0016,-0.0016,0,0.0326,0.0345,0.0375,0.041,0.0451,0.0448,0.0502,0.0545,0.0666,0.0719,0.0802,0.0685,0.058,0.041,0.0159,0.0016,-0.0004,-0.0041,-0.0036,-0.0035,-0.0035,-0.0053,-0.004,-0.004,-0.0041,-0.0041,0,0,0.0341,0.0374,0.0388,0.0467,0.0499,0.0555,0.0594,0.0683,0.0732,0.0812,0.0813,0.0802,0.0611,0.0419,0.0237,0.0097,0.0057,0.0063,0.0098,0.0126,0.0128,-0.0004,-0.0028,0,0,0,0,0]}],[{"header":{"parameterUnit":"m.s-1","parameterCategory":2,"la1":30.2991,"la2":30.254,"lo1":-89.0895,"lo2":-89.0444,"dy":0.0017,"dx":0.0017,"nx":28,"ny":28,"refTime":"2023-09-04T03:00:00:Z","depth":"4","parameterNumber":2,"parameterNumberName":"U-component_of_CURRENTS"},"data":[0,0,0,0,0,0,0,0,0,0,0,0,0,0,0,0,0,0,0,0,0,0,0,0,0,0,0,0,0,0,0,0,0,0,0,0,0,0,0,0,0,0,0,0,0,0,0,0,0,0,0,0,0,0,0,0,0,0,0.0722,0.0722,0,0.0688,0.0688,0.0687,0.0696,0.0697,0.0698,0.0698,0.0753,0.0754,0.0755,0,0,0,0,0,0,0,0,0,0,0,0,0,0.0793,0.0792,0.0722,0.0722,0.0721,0.0688,0.0688,0.0687,0.0696,0.0697,0.0698,0.0698,0.0753,0.0754,0.0755,0,0,0,0,0,0,0,0,0,0,0,0,0,0.0761,0.0791,0.0722,0.0722,0.0721,0.0688,0.0688,0.0687,0.0696,0.0697,0.0698,0.0699,0.0753,0.0754,0.0755,0.0744,0,0,0.0759,0.076,0,0,0,0,0,0,0,0,0.0763,0.0759,0.0722,0.0722,0.0721,0.0697,0.0733,0.071,0.0696,0.0706,0.0698,0.0699,0.0742,0.0744,0.0735,0.0747,0.0749,0.0759,0.076,0.0761,0.0761,0,0,0,0,0,0,0,0.0765,0.076,0.0709,0.0722,0.0721,0.0722,0.0719,0.0728,0.0721,0.0705,0.0706,0.0701,0.0743,0.0733,0.0736,0.075,0.0759,0.0761,0.0761,0.0762,0.083,0.0831,0,0,0,0,0,0,0.0767,0.0762,0.071,0.0708,0.0744,0.072,0.0716,0.0704,0.0719,0.0721,0.07,0.0701,0.0731,0.0735,0.0739,0.0793,0.0761,0.0762,0.0763,0.0829,0.083,0.0831,0,0,0,0,0,0,0.0769,0.0763,0.0712,0.0735,0.0728,0.0718,0.0704,0.0703,0.0713,0.0714,0.0718,0.0714,0.0732,0.0737,0.0762,0.0793,0.0763,0.0764,0.0828,0.0829,0.0831,0.086,0,0,0,0,0,0,0.0771,0.0763,0.0774,0.0734,0.0727,0.0705,0.0703,0.0702,0.0708,0.071,0.0727,0.0732,0.0733,0.076,0.0763,0.0794,0.0765,0.0826,0.0828,0.083,0.0858,0.0862,0.0866,0,0,0,0,0,0.0773,0.0774,0.0774,0.0769,0.0735,0.0705,0.0702,0.0698,0.0708,0.0712,0.0725,0.0732,0.0775,0.0761,0.0765,0.0797,0.0825,0.0828,0.083,0.0856,0.0861,0.0866,0,0,0,0,0,0,0.0814,0.0774,0.0773,0.0764,0.0745,0.0707,0.0714,0.0708,0.0719,0.0732,0.0736,0.0742,0.0777,0.0781,0.0765,0.0823,0.0805,0.0808,0.0824,0.0829,0.0833,0.0823,0.0766,0,0,0,0,0,0.0826,0.0813,0.078,0.0775,0.0769,0.0747,0.0742,0.0734,0.0728,0.0734,0.0746,0.0766,0.0785,0.0802,0.0814,0.0841,0.0852,0.0868,0.0872,0.0876,0.0871,0.091,0.0917,0.0839,0.0839,0.0839,0,0,0.0841,0.0817,0.0813,0.0783,0.077,0.0753,0.0747,0.0739,0.0737,0.074,0.0761,0.078,0.0794,0.0824,0.0842,0.0835,0.0908,0.0879,0.0882,0.0875,0.0913,0.092,0.0927,0.084,0.084,0.084,0,0,0.0849,0.0843,0.0835,0.0815,0.0795,0.0776,0.0779,0.0756,0.0767,0.0777,0.0788,0.0818,0.0844,0.0858,0.087,0.0904,0.0926,0.0926,0.0943,0.0982,0.0988,0.0994,0.1033,0.1042,0.0931,0.0931,0.0931,0,0.0877,0.0849,0.0832,0.0813,0.0798,0.0788,0.0773,0.0776,0.0769,0.0785,0.0793,0.084,0.0855,0.0891,0.0908,0.0914,0.0943,0.0922,0.0987,0.0993,0.0999,0.1036,0.1046,0.0933,0.0933,0.0933,0.0933,0,0.0864,0.0851,0.0844,0.0814,0.0801,0.0785,0.0774,0.0788,0.0803,0.0807,0.0854,0.0872,0.0901,0.0922,0.0926,0.0981,0.0992,0.0986,0.0972,0.1008,0.1046,0.1055,0.0936,0.0935,0.0934,0.0934,0,0,0.0893,0.0847,0.0845,0.0827,0.0797,0.0777,0.079,0.0792,0.0815,0.0837,0.0868,0.0908,0.0932,0.0945,0.0968,0.1005,0.1075,0.102,0.1021,0.1055,0.1174,0.1081,0.1083,0.1091,0.1092,0.1093,0.119,0,0.0891,0.0854,0.0832,0.0803,0.078,0.0773,0.0775,0.0784,0.0819,0.0854,0.0893,0.094,0.0939,0.0977,0.1007,0.1064,0.11,0.105,0.1137,0.1139,0.1049,0.109,0.1098,0.1197,0.1199,0.1201,0.1202,0,0.0881,0.0852,0.0825,0.0782,0.0774,0.0768,0.0779,0.0785,0.0836,0.0869,0.0922,0.0961,0.1027,0.1021,0.1117,0.1094,0.1133,0.1167,0.1172,0.1076,0.1062,0.1151,0.1219,0.1218,0.1216,0.1215,0.1214,0,0.0886,0.0844,0.0822,0.0804,0.0764,0.0773,0.0769,0.0804,0.0824,0.0908,0.0946,0.1012,0.1062,0.1122,0.1185,0.1175,0.1284,0.1274,0.1221,0.1216,0.1258,0.125,0.1331,0.133,0.133,0.133,0.133,0,0.087,0.0853,0.0829,0.0811,0.0792,0.0777,0.0795,0.0813,0.086,0.0888,0.0965,0.1005,0.1094,0.1161,0.1208,0.124,0.1303,0.1227,0.1232,0.127,0.1263,0.1265,0.1256,0.1334,0.1333,0.1332,0.1331,0,0.0868,0.0855,0.0819,0.0791,0.0792,0.0782,0.0792,0.0801,0.0868,0.0915,0.095,0.1029,0.1119,0.119,0.1293,0.1261,0.1313,0.1304,0.1349,0.1355,0.1218,0.121,0.1264,0.1262,0.1259,0.1258,0.1256,0,0.0859,0.0845,0.0809,0.0792,0.0786,0.0784,0.0771,0.0804,0.0818,0.0919,0.0926,0.1042,0.1092,0.1157,0.1234,0.1312,0.1293,0.1304,0.1243,0.121,0.1211,0.1206,0.1201,0.1253,0.1252,0.1252,0.1251,0,0.084,0.0839,0.0812,0.0771,0.0754,0.0715,0.0718,0.0722,0.0765,0.085,0.0895,0.0957,0.1036,0.1106,0.1167,0.1217,0.1291,0.1282,0.1286,0.1228,0.1197,0.1199,0.1196,0.1244,0.1245,0.1245,0.1246,0,0.0838,0.0809,0.0779,0.073,0.0707,0.0639,0.064,0.0642,0.0657,0.0773,0.0791,0.0916,0.1013,0.1058,0.1121,0.1156,0.1144,0.1101,0.1115,0.1124,0.1032,0.0969,0.0954,0,0,0,0,0,0.0821,0.0778,0.0734,0.0657,0.0629,0.0608,0.0591,0.0597,0.0666,0.067,0.0728,0.0806,0.0895,0.0958,0.0972,0.1068,0.1146,0.1078,0.1102,0.1202,0.1211,0.1116,0,0,0,0,0,0,0.0805,0.0779,0.0718,0.0608,0.0561,0.0502,0.0487,0.0518,0.052,0.0621,0.0673,0.0768,0.0867,0.0904,0.097,0.0991,0.0987,0.1163,0.116,0.1198,0.1205,0.1212,0.1117,0,0,0,0,0]},{"header":{"parameterUnit":"m.s-1","parameterCategory":2,"la1":30.2991,"la2":30.254,"lo1":-89.0895,"lo2":-89.0444,"dy":0.0017,"dx":0.0017,"nx":28,"ny":28,"refTime":"2023-09-04T03:00:00:Z","depth":"4","parameterNumber":3,"parameterNumberName":"V-component_of_CURRENTS"},"data":[0,0,0,0,0,0,0,0,0,0,0,0,0,0,0,0,0,0,0,0,0,0,0,0,0,0,0,0,0,0,0,0,0,0,0,0,0,0,0,0,0,0,0,0,0,0,0,0,0,0,0,0,0,0,0,0,0,0,0.0082,0.0082,0,0.0078,0.0078,0.0078,0.0067,0.0067,0.0067,0.0067,0.0044,0.0043,0.0043,0,0,0,0,0,0,0,0,0,0,0,0,0,0.0091,0.0091,0.0082,0.0082,0.0082,0.0078,0.0078,0.0078,0.0067,0.0067,0.0067,0.0067,0.0044,0.0043,0.0043,0,0,0,0,0,0,0,0,0,0,0,0,0,0.0087,0.0091,0.0082,0.0077,0.0076,0.0078,0.0078,0.0078,0.0067,0.0067,0.0067,0.0067,0.0044,0.0043,0.0043,0.0045,0,0,0.0041,0.0041,0,0,0,0,0,0,0,0,0.0087,0.0086,0.0077,0.0077,0.0076,0.0073,0.0073,0.0066,0.0068,0.007,0.0067,0.0066,0.0052,0.0051,0.0051,0.0044,0.0043,0.0041,0.004,0.004,0.004,0,0,0,0,0,0,0,0.0087,0.0087,0.008,0.0077,0.0077,0.0078,0.0077,0.0072,0.0062,0.007,0.0069,0.007,0.0052,0.0051,0.005,0.0042,0.0041,0.004,0.004,0.004,0.004,0.0041,0,0,0,0,0,0,0.0088,0.0087,0.008,0.008,0.0082,0.0078,0.0077,0.0074,0.0063,0.0061,0.007,0.0069,0.0053,0.0051,0.0049,0.006,0.004,0.004,0.0039,0.004,0.004,0.0041,0,0,0,0,0,0,0.0088,0.0088,0.008,0.0084,0.0083,0.0078,0.0075,0.0074,0.0075,0.0063,0.0061,0.0072,0.0052,0.005,0.0051,0.0058,0.0039,0.0039,0.0039,0.004,0.0041,0.0075,0,0,0,0,0,0,0.0089,0.0088,0.0088,0.0084,0.0083,0.0087,0.0076,0.0075,0.0076,0.0075,0.0064,0.0061,0.0052,0.0052,0.005,0.0057,0.0038,0.0039,0.004,0.004,0.0074,0.0077,0.008,0,0,0,0,0,0.0089,0.0091,0.0088,0.0087,0.0082,0.0087,0.0087,0.0082,0.0076,0.0081,0.0074,0.0062,0.0055,0.0052,0.0049,0.0057,0.0038,0.0039,0.004,0.0072,0.0076,0.008,0,0,0,0,0,0,0.0097,0.009,0.0086,0.0086,0.0089,0.0086,0.0088,0.0085,0.0084,0.0082,0.0068,0.0066,0.0068,0.0059,0.0055,0.0059,0.0044,0.0045,0.0069,0.0073,0.0076,0.0087,0.0038,0,0,0,0,0,0.0099,0.0097,0.0094,0.0096,0.0096,0.0093,0.0094,0.0093,0.0091,0.009,0.0082,0.0074,0.007,0.0069,0.0063,0.0067,0.005,0.0069,0.0072,0.0075,0.0083,0.006,0.0062,0.0044,0.0044,0.0044,0,0,0.0103,0.0099,0.0099,0.0098,0.0097,0.0107,0.0093,0.0098,0.011,0.0087,0.0097,0.0084,0.0073,0.0078,0.0078,0.0071,0.0071,0.0076,0.0079,0.0085,0.0061,0.0063,0.0064,0.0044,0.0044,0.0044,0,0,0.0114,0.0108,0.011,0.0114,0.0117,0.0118,0.0121,0.0121,0.0123,0.0131,0.0116,0.0113,0.0106,0.0102,0.0099,0.0116,0.0087,0.0109,0.0136,0.0114,0.0115,0.0116,0.0096,0.0094,0.0112,0.0112,0.0113,0,0.012,0.0122,0.0114,0.0121,0.0132,0.0125,0.0141,0.0144,0.0146,0.015,0.0139,0.0131,0.0121,0.0127,0.0133,0.0124,0.0103,0.0123,0.0118,0.0119,0.0119,0.0097,0.0096,0.0114,0.0114,0.0114,0.0114,0,0.0132,0.0139,0.0143,0.0151,0.0163,0.0175,0.0182,0.0189,0.0189,0.0189,0.0193,0.0177,0.0172,0.0167,0.0156,0.0156,0.0138,0.0123,0.0109,0.0123,0.0099,0.0097,0.0117,0.0116,0.0116,0.0115,0,0,0.0138,0.0148,0.0152,0.0166,0.0181,0.0195,0.0216,0.0233,0.0248,0.024,0.0252,0.0244,0.0227,0.0222,0.0203,0.0187,0.0171,0.0158,0.0156,0.0139,0.0118,0.011,0.0107,0.0148,0.0148,0.0148,0.01,0,0.0153,0.0172,0.0178,0.0214,0.0228,0.0239,0.0265,0.0281,0.0284,0.0291,0.0273,0.0274,0.0251,0.0246,0.0226,0.0183,0.0166,0.0186,0.0107,0.0105,0.0097,0.0104,0.0148,0.0098,0.0098,0.0097,0.0097,0,0.0166,0.0179,0.0208,0.0249,0.0258,0.0283,0.0323,0.0346,0.0354,0.0353,0.0344,0.0322,0.0304,0.0276,0.0215,0.0225,0.0179,0.0143,0.014,0.0121,0.0093,0.0081,0.0092,0.0092,0.0093,0.0093,0.0093,0,0.0176,0.0207,0.0233,0.0245,0.0284,0.0309,0.0339,0.0364,0.0391,0.0389,0.0394,0.0362,0.0346,0.0286,0.0214,0.0209,0.0138,0.0121,0.0073,0.0071,0.0077,0.0076,0.0079,0.0079,0.008,0.008,0.008,0,0.019,0.0215,0.0239,0.0255,0.0303,0.033,0.0384,0.0401,0.0431,0.0462,0.0426,0.0426,0.0345,0.0292,0.0223,0.0142,0.0143,0.0082,0.0061,0.0092,0.0094,0.0075,0.0075,0.0078,0.0078,0.0079,0.0079,0,0.0197,0.0208,0.0243,0.0286,0.0307,0.0344,0.0419,0.0457,0.0475,0.0509,0.0509,0.0471,0.0403,0.0319,0.0219,0.0159,0.0079,0.005,0.0094,0.0075,0.0024,0.0027,-0.0007,-0.0008,-0.0009,-0.0009,-0.0009,0,0.0202,0.0216,0.0263,0.0291,0.0313,0.0374,0.0424,0.0474,0.0512,0.0535,0.0547,0.0495,0.0456,0.031,0.0219,0.0089,0.0069,0.0022,0.0023,0.0034,0.0016,0.002,0.0023,-0.001,-0.001,-0.0011,-0.0011,0,0.0216,0.0228,0.0254,0.0303,0.0355,0.042,0.0487,0.0515,0.057,0.0585,0.0572,0.0502,0.0425,0.0311,0.021,0.0117,0.0049,0.0016,0.0017,0.0017,0.003,0.0014,0.0017,-0.0013,-0.0012,-0.0012,-0.0012,0,0.023,0.0245,0.0273,0.0319,0.0382,0.0444,0.0482,0.0529,0.057,0.0593,0.0585,0.0508,0.0467,0.0325,0.0234,0.014,0.0114,0.0074,0.007,0.0071,0.0107,0.0135,0.0112,0,0,0,0,0,0.0242,0.0255,0.0294,0.0342,0.0402,0.0443,0.0518,0.0552,0.0596,0.059,0.0592,0.0522,0.0389,0.0332,0.0237,0.0216,0.0093,0.0101,0.0043,-0.0023,-0.0021,0.0007,0,0,0,0,0,0,0.025,0.0278,0.0288,0.0352,0.0391,0.0466,0.0515,0.0547,0.0545,0.0567,0.0498,0.0484,0.0355,0.044,0.0229,0.0204,0.015,0.0047,0.0045,-0.0024,-0.0022,-0.002,0.0009,0,0,0,0,0]}]]